Hastings, NE

6:27 AM CST on December 13, 2017 (GMT -0600)
Hastings Municipal

Weather History for KHSI - December, 2014

Change the Weather History Date:

Sunday, December 14, 2014

  Actual Average Record
Temperature  
Mean Temperature 48 °F 28 °F  
Max Temperature 57 °F 37 °F 64 °F (1966)
Min Temperature 38 °F 18 °F -13 °F (1917)
Degree Days  
Heating Degree Days 17 38  
Month to date heating degree days 407 499  
Since 1 July heating degree days 1745 1780  
Cooling Degree Days 0 0  
Month to date cooling degree days 0 0  
Year to date cooling degree days 1018 1077  
Moisture  
Dew Point 50 °F    
Average Humidity 87    
Maximum Humidity 93    
Minimum Humidity 80    
Precipitation  
Precipitation T in 0.01 in 0.62 in (1992)
Month to date precipitation T 0.40  
Year to date precipitation 28.67 26.90  
Snow  
Snow 0.00 in 0.20 in 5.00 in (1973)
Month to date snowfall 0.0 2.6  
Since 1 July snowfall 1.7 6.4  
Snow Depth 0.00 in    
Sea Level Pressure  
Sea Level Pressure 29.71 in    
Wind  
Wind Speed 13 mph (SSE)    
Max Wind Speed 23 mph    
Max Gust Speed 29 mph    
Visibility 7 miles    
Events Rain , Thunderstorm    
T = Trace of Precipitation, MM = Missing Value Source: NWS Daily Summary

Daily Weather History Graph

Daily Weather History Graph

Search for Another Location

Airport or City:

Trip Planner

Search our weather history database for the weather conditions in past years. The results will help you decide how hot, cold, wet, or windy it might be!

Date:

Astronomy

Dec. 14, 2014 Rise Set
Actual Time 7:49 AM CST 5:07 PM CST
Civil Twilight 7:18 AM CST 5:38 PM CST
Nautical Twilight 6:44 AM CST 6:12 PM CST
Astronomical Twilight 6:11 AM CST 6:45 PM CST
Moon 12:11 AM CST (12/14) 12:40 PM CST (12/14)
Length of Visible Light 10h 19m
Length of Day
9h 17m
Waning Gibbous, 48% of the Moon is Illuminated
Dec 14
Waning Gibbous
Dec 21
New
Dec 28
First Quarter
Jan 4
Full
Jan 13
Last Quarter

Hourly Weather History & Observations

Time (CST) Temp. Windchill Dew Point Humidity Pressure Visibility Wind Dir Wind Speed Gust Speed Precip Events Conditions
12:53 AM 54.0 °F - 51.1 °F 90% 29.81 in 6.0 mi South 11.5 mph 20.7 mph N/A   Overcast
1:20 AM 54.0 °F - 51.1 °F 90% 29.79 in 7.0 mi South 13.8 mph - N/A   Overcast
1:53 AM 55.0 °F - 51.1 °F 86% 29.78 in 7.0 mi SSE 13.8 mph - N/A   Overcast
2:12 AM 54.0 °F - 51.1 °F 90% 29.79 in 7.0 mi South 10.4 mph - N/A   Overcast
2:45 AM 54.0 °F - 51.1 °F 90% 29.78 in 7.0 mi South 11.5 mph - N/A   Overcast
2:53 AM 54.0 °F - 51.1 °F 90% 29.78 in 7.0 mi South 11.5 mph 21.9 mph N/A   Overcast
3:53 AM 54.0 °F - 51.1 °F 90% 29.77 in 7.0 mi South 15.0 mph 23.0 mph N/A   Overcast
4:07 AM 54.0 °F - 51.1 °F 90% 29.76 in 7.0 mi South 16.1 mph - N/A   Overcast
4:53 AM 55.0 °F - 51.1 °F 86% 29.76 in 7.0 mi South 13.8 mph - N/A   Overcast
5:53 AM 55.0 °F - 51.1 °F 86% 29.75 in 7.0 mi South 13.8 mph 23.0 mph N/A   Overcast
6:53 AM 55.0 °F - 51.1 °F 86% 29.76 in 8.0 mi South 12.7 mph - N/A   Overcast
7:53 AM 55.0 °F - 52.0 °F 89% 29.76 in 5.0 mi South 13.8 mph 20.7 mph N/A   Overcast
8:53 AM 55.0 °F - 52.0 °F 89% 29.77 in 3.0 mi South 9.2 mph - N/A   Overcast
9:53 AM 55.9 °F - 52.0 °F 87% 29.76 in 6.0 mi SSE 11.5 mph - N/A   Overcast
10:53 AM 55.9 °F - 52.0 °F 87% 29.75 in 5.0 mi South 16.1 mph 23.0 mph N/A   Overcast
11:45 AM 57.0 °F - 52.0 °F 83% 29.73 in 7.0 mi South 13.8 mph - N/A   Overcast
11:53 AM 57.0 °F - 52.0 °F 83% 29.72 in 7.0 mi South 13.8 mph - N/A   Overcast
12:23 PM 57.0 °F - 52.0 °F 83% 29.72 in 6.0 mi SSE 13.8 mph - N/A   Haze
12:53 PM 57.0 °F - 52.0 °F 83% 29.69 in 6.0 mi South 11.5 mph - N/A   Haze
1:02 PM 57.0 °F - 52.0 °F 83% 29.71 in 7.0 mi South 10.4 mph - N/A   Overcast
1:12 PM 57.0 °F - 52.0 °F 83% 29.71 in 7.0 mi South 13.8 mph - N/A   Overcast
1:22 PM 57.0 °F - 52.0 °F 83% 29.70 in 7.0 mi South 15.0 mph 20.7 mph 0.00 in Rain Light Rain
1:53 PM 57.0 °F - 52.0 °F 83% 29.68 in 6.0 mi South 13.8 mph - 0.00 in Rain Light Rain
2:53 PM 57.0 °F - 53.1 °F 87% 29.68 in 6.0 mi SSE 12.7 mph - 0.00 in   Overcast
3:21 PM 57.0 °F - 52.0 °F 83% 29.68 in 7.0 mi SSE 15.0 mph - N/A   Overcast
3:53 PM 57.0 °F - 52.0 °F 83% 29.68 in 9.0 mi SE 13.8 mph - 0.00 in   Overcast
4:40 PM 55.9 °F - 51.1 °F 84% 29.68 in 6.0 mi SE 11.5 mph - 0.00 in Rain Light Rain
4:53 PM 55.9 °F - 51.1 °F 84% 29.67 in 7.0 mi SE 12.7 mph - 0.00 in   Overcast
5:00 PM 55.0 °F - 51.1 °F 86% 29.68 in 7.0 mi SE 11.5 mph - N/A   Overcast
5:17 PM 55.0 °F - 51.1 °F 86% 29.68 in 8.0 mi SE 12.7 mph - N/A   Overcast
5:24 PM 55.0 °F - 51.1 °F 86% 29.68 in 9.0 mi ESE 11.5 mph - N/A   Overcast
5:44 PM 55.0 °F - 51.1 °F 86% 29.68 in 8.0 mi ESE 11.5 mph - N/A   Overcast
5:53 PM 55.0 °F - 51.1 °F 86% 29.68 in 8.0 mi SE 10.4 mph - N/A   Overcast
6:53 PM 54.0 °F - 51.1 °F 90% 29.67 in 8.0 mi ESE 11.5 mph - N/A   Overcast
7:19 PM 54.0 °F - 50.0 °F 86% 29.68 in 9.0 mi ESE 9.2 mph - N/A   Overcast
7:51 PM 53.6 °F - 50.0 °F 88% 29.67 in 10.0 mi East 10.4 mph - N/A   Mostly Cloudy
7:53 PM 54.0 °F - 50.0 °F 86% 29.66 in 10.0 mi ESE 9.2 mph - N/A   Mostly Cloudy
8:37 PM 53.1 °F - 48.9 °F 86% 29.66 in 10.0 mi ESE 9.2 mph - N/A   Overcast
8:50 PM 53.6 °F - 48.2 °F 82% 29.66 in 10.0 mi ESE 10.4 mph - N/A   Overcast
8:53 PM 53.1 °F - 48.9 °F 86% 29.66 in 10.0 mi ESE 8.1 mph - N/A   Overcast
9:16 PM 52.0 °F - 48.9 °F 89% 29.66 in 9.0 mi ESE 9.2 mph - N/A   Overcast
9:29 PM 52.0 °F - 48.9 °F 89% 29.66 in 9.0 mi ESE 9.2 mph - N/A   Overcast
9:53 PM 50.0 °F - 48.0 °F 93% 29.66 in 9.0 mi North - - N/A   Overcast
10:06 PM 43.0 °F 34.8 °F 39.9 °F 89% 29.67 in 8.0 mi NNW 18.4 mph - N/A   Overcast
10:53 PM 39.9 °F 30.5 °F 37.0 °F 89% 29.67 in 6.0 mi North 19.6 mph 26.5 mph N/A   Overcast
11:38 PM 39.0 °F 29.9 °F 37.0 °F 93% 29.66 in 6.0 mi North 17.3 mph - 0.00 in Thunderstorm Overcast
11:53 PM 37.9 °F 27.1 °F 36.0 °F 93% 29.67 in 7.0 mi North 23.0 mph - 0.00 in Rain Light Rain